TITAN 3C TRANSTAGE DEB, 28834

Orbit data source: Space-Track

TITAN 3C TRANSTAGE DEB, 28834 is space debris in HEO originally from a launch on Tue, 21 Dec 1965 UTC launched from the Air Force Eastern Test Range (AFETR). Debris objects in space refer to the collection of defunct objects orbiting the Earth. Examples of debris include non-operational satellites, rocket bodies, and fragments generated from explosions, collisions, or faulty payload assembly.

Loading next visibility...
Identifier
28834, 1965-108CL
Orbit
HEO
Country
Flag of USUS
Related business
Manufacturer
Unknown
Mission
Spacecraft
Bus & Motor
Unknown
Mass
Unknown
Launch date (UTC)
1965-12-21 (60 years ago)
Launch vehicle
Unknown
Launch site
Air Force Eastern Test Range (AFETR)
Object type
Payload
Rocket body
Debris
Shape & HBR
Unknown shape, 0.1 m
Radar Cross Section
Medium (>0.1 m² and <1 m²)

Expand to show TLE details & history
Last TLE update: 5 months ago

TLE from 5 months ago
0 TITAN 3C TRANSTAGE DEB
1 28834U 65108CL  25139.94444212 -.00000071  00000-0  00000-0 0  9994
2 28834  27.4271 349.8078 6636274 185.0856 161.2822  2.58692138100047
Epoch: 2025-05-19T22:39Z
TLE epoch observation values (Epoch: 2025-05-19T22:39:59.799Z)
Latitude
-0.00001°
Longitude
131.95826°
Altitude
30,608.824 km
Speed
1.942 km/s
True Right ascension
23h 19m 13s
True Declination
0° 00' 00"
Sunlit
Object was in daylight at epoch
Visualization orbit readout
Latitude
Unknown
Longitude
Unknown
Altitude
Unknown
Speed
Unknown
Apparent Right ascension
Unknown
Apparent Declination
Unknown
Sunlit
N/A
Visualization observer readout
Local Sidereal Time
13:31:55
Azimuth
Unknown
Elevation
Unknown
Doppler factor
Unknown
Orbital elements
Apogee altitude
30,918.071 km
Perigee altitude
1,162.868 km
Semi-major axis
22,418.607 km
Eccentricity
0.66363
Inclination
27.4271°
RAAN
349.8078°
Arg. of periapsis
185.0856°
True anomaly
174.91466°
Mean anomaly
161.2822°
Eccentric anomaly
168.71979°
Mean motion
0.64659 °/min
Orbital period
556.77 mins
BSTAR
0
Loading maneuver chart data...
Computing Atmospheric mass density...

Documentation

Showing up to 5 results
|